When you browse on this site, cookies collect data to enhance your experience and personalize the content and advertising you see.
Visit our Privacy Policy to learn more. By continuing to use the site, you agree to this use of cookies and data.
  • In Portugal
  • List of Countries
  • For 7 days
  • Water Temperature
  • Satellite Maps
  • Weather Map
  • Weather Widgets
  • user-avatar
    Login

    Hourly Weather Zarka

    Today, 16 July, Tuesday

    Time Temperature Precipitation Wind Pressure Humidity
    00:00 +19°C° 0 mm 3 mps 700 mmHg 89%
    01:00 +19°C° 0 mm 3 mps 700 mmHg 91%
    02:00 +18°C° 0 mm 2 mps 700 mmHg 93%
    03:00 +18°C° 0 mm 2 mps 700 mmHg 93%
    04:00 +18°C° 0 mm 2 mps 700 mmHg 93%
    05:00 +18°C° 0 mm 2 mps 700 mmHg 94%
    06:00 +20°C° 0 mm 3 mps 701 mmHg 81%
    07:00 +22°C° 0 mm 3 mps 701 mmHg 69%
    08:00 +26°C° 0 mm 4 mps 701 mmHg 57%
    09:00 +28°C° 0 mm 4 mps 702 mmHg 48%
    10:00 +30°C° 0 mm 5 mps 702 mmHg 39%
    11:00 +33°C° 0 mm 6 mps 702 mmHg 31%
    12:00 +33°C° 0 mm 7 mps 702 mmHg 29%
    13:00 +34°C° 0 mm 7 mps 701 mmHg 28%
    14:00 +35°C° 0 mm 8 mps 701 mmHg 26%
    15:00 +35°C° 0 mm 8 mps 701 mmHg 26%
    16:00 +34°C° 0 mm 8 mps 701 mmHg 27%
    17:00 +33°C° 0 mm 8 mps 701 mmHg 27%
    18:00 +30°C° 0 mm 6 mps 701 mmHg 32%
    19:00 +28°C° 0 mm 4 mps 701 mmHg 38%
    20:00 +25°C° 0 mm 3 mps 700 mmHg 43%
    21:00 +25°C° 0 mm 2 mps 700 mmHg 44%
    22:00 +24°C° 0 mm 2 mps 700 mmHg 44%
    23:00 +23°C° 0 mm 1 mps 700 mmHg 45%

    Tomorrow, 17 July, Wednesday

    Time Temperature Precipitation Wind Pressure Humidity
    00:00 +23°C° 0 mm 1 mps 700 mmHg 45%
    01:00 +23°C° 0 mm 1 mps 699 mmHg 44%
    02:00 +22°C° 0 mm 1 mps 699 mmHg 44%
    03:00 +23°C° 0 mm 1 mps 699 mmHg 43%
    04:00 +23°C° 0 mm 1 mps 699 mmHg 42%
    05:00 +23°C° 0 mm 2 mps 699 mmHg 41%
    06:00 +26°C° 0 mm 2 mps 699 mmHg 35%
    07:00 +30°C° 0 mm 3 mps 700 mmHg 28%
    08:00 +34°C° 0 mm 4 mps 700 mmHg 22%
    09:00 +36°C° 0 mm 5 mps 700 mmHg 20%
    10:00 +39°C° 0 mm 6 mps 700 mmHg 18%
    11:00 +41°C° 0 mm 7 mps 701 mmHg 16%
    12:00 +42°C° 0 mm 9 mps 700 mmHg 15%
    13:00 +43°C° 0 mm 10 mps 700 mmHg 15%
    14:00 +43°C° 0 mm 11 mps 700 mmHg 14%
    15:00 +42°C° 0 mm 10 mps 700 mmHg 16%
    16:00 +39°C° 0 mm 9 mps 700 mmHg 18%
    17:00 +38°C° 0 mm 9 mps 700 mmHg 20%
    18:00 +34°C° 0 mm 6 mps 700 mmHg 25%
    19:00 +30°C° 0 mm 4 mps 699 mmHg 29%
    20:00 +27°C° 0 mm 1 mps 699 mmHg 34%
    21:00 +27°C° 0 mm 1 mps 699 mmHg 34%
    22:00 +26°C° 0 mm 1 mps 699 mmHg 34%
    23:00 +26°C° 0 mm 1 mps 699 mmHg 34%

    Day after tomorrow, 18 July, Thursday

    Time Temperature Precipitation Wind Pressure Humidity
    00:00 +26°C° 0 mm 1 mps 699 mmHg 35%
    01:00 +25°C° 0 mm 1 mps 699 mmHg 37%
    02:00 +25°C° 0 mm 2 mps 699 mmHg 38%
    03:00 +25°C° 0 mm 2 mps 699 mmHg 41%
    04:00 +24°C° 0 mm 2 mps 699 mmHg 44%
    05:00 +24°C° 0 mm 2 mps 699 mmHg 47%
    06:00 +26°C° 0 mm 3 mps 700 mmHg 42%
    07:00 +28°C° 0 mm 4 mps 700 mmHg 37%
    08:00 +32°C° 0 mm 5 mps 701 mmHg 33%
    09:00 +33°C° 0 mm 6 mps 701 mmHg 31%
    10:00 +34°C° 0 mm 7 mps 701 mmHg 28%
    11:00 +36°C° 0 mm 7 mps 701 mmHg 26%
    12:00 +37°C° 0 mm 8 mps 701 mmHg 26%
    13:00 +38°C° 0 mm 9 mps 701 mmHg 25%
    14:00 +38°C° 0 mm 9 mps 701 mmHg 24%
    15:00 +35°C° 0 mm 9 mps 701 mmHg 27%
    16:00 +34°C° 0 mm 9 mps 700 mmHg 31%
    17:00 +32°C° 0 mm 9 mps 700 mmHg 34%
    18:00 +29°C° 0 mm 7 mps 700 mmHg 42%
    19:00 +26°C° 0 mm 5 mps 700 mmHg 50%
    20:00 +24°C° 0 mm 3 mps 701 mmHg 58%
    21:00 +22°C° 0 mm 3 mps 701 mmHg 61%
    22:00 +21°C° 0 mm 2 mps 701 mmHg 64%
    23:00 +20°C° 0 mm 2 mps 701 mmHg 67%

    19 July, Friday

    Time Temperature Precipitation Wind Pressure Humidity
    00:00 +20°C° 0 mm 2 mps 700 mmHg 70%
    01:00 +19°C° 0 mm 2 mps 700 mmHg 74%
    02:00 +19°C° 0 mm 2 mps 700 mmHg 78%
    03:00 +18°C° 0 mm 2 mps 700 mmHg 82%
    04:00 +18°C° 0 mm 2 mps 700 mmHg 85%
    05:00 +18°C° 0 mm 2 mps 701 mmHg 89%
    06:00 +20°C° 0 mm 3 mps 701 mmHg 78%
    07:00 +22°C° 0 mm 3 mps 702 mmHg 67%
    08:00 +25°C° 0 mm 4 mps 702 mmHg 56%
    09:00 +27°C° 0 mm 4 mps 702 mmHg 48%
    10:00 +29°C° 0 mm 4 mps 702 mmHg 40%
    11:00 +32°C° 0 mm 5 mps 702 mmHg 32%
    12:00 +33°C° 0 mm 5 mps 702 mmHg 29%
    13:00 +34°C° 0 mm 5 mps 702 mmHg 27%
    14:00 +35°C° 0 mm 6 mps 702 mmHg 25%
    15:00 +34°C° 0 mm 6 mps 702 mmHg 29%
    16:00 +33°C° 0 mm 7 mps 701 mmHg 34%
    17:00 +32°C° 0 mm 7 mps 701 mmHg 39%
    18:00 +28°C° 0 mm 6 mps 701 mmHg 48%
    19:00 +26°C° 0 mm 5 mps 701 mmHg 57%
    20:00 +22°C° 0 mm 3 mps 701 mmHg 66%
    21:00 +21°C° 0 mm 3 mps 701 mmHg 68%
    22:00 +20°C° 0 mm 3 mps 701 mmHg 70%
    23:00 +19°C° 0 mm 2 mps 701 mmHg 73%

    20 July, Saturday

    Time Temperature Precipitation Wind Pressure Humidity
    00:00 +19°C° 0 mm 2 mps 701 mmHg 73%
    01:00 +18°C° 0 mm 2 mps 701 mmHg 74%
    02:00 +18°C° 0 mm 2 mps 700 mmHg 75%
    03:00 +18°C° 0 mm 2 mps 700 mmHg 76%
    04:00 +17°C° 0 mm 2 mps 700 mmHg 78%
    05:00 +17°C° 0 mm 2 mps 700 mmHg 80%
    06:00 +20°C° 0 mm 2 mps 701 mmHg 69%
    07:00 +23°C° 0 mm 2 mps 702 mmHg 58%
    08:00 +26°C° 0 mm 3 mps 702 mmHg 48%
    09:00 +28°C° 0 mm 3 mps 702 mmHg 42%
    10:00 +30°C° 0 mm 4 mps 702 mmHg 36%
    11:00 +33°C° 0 mm 4 mps 702 mmHg 30%
    12:00 +34°C° 0 mm 5 mps 702 mmHg 27%
    13:00 +35°C° 0 mm 5 mps 702 mmHg 25%
    14:00 +36°C° 0 mm 6 mps 702 mmHg 23%
    15:00 +35°C° 0 mm 6 mps 702 mmHg 29%
    16:00 +33°C° 0 mm 7 mps 701 mmHg 35%
    17:00 +32°C° 0 mm 7 mps 701 mmHg 41%
    18:00 +29°C° 0 mm 6 mps 701 mmHg 51%
    19:00 +26°C° 0 mm 4 mps 701 mmHg 60%
    20:00 +24°C° 0 mm 3 mps 701 mmHg 69%
    21:00 +23°C° 0 mm 2 mps 701 mmHg 71%
    22:00 +21°C° 0 mm 2 mps 701 mmHg 73%
    23:00 +20°C° 0 mm 2 mps 701 mmHg 75%

    21 July, Sunday

    Time Temperature Precipitation Wind Pressure Humidity
    00:00 +20°C° 0 mm 2 mps 701 mmHg 77%
    01:00 +20°C° 0 mm 2 mps 701 mmHg 78%
    02:00 +19°C° 0 mm 2 mps 700 mmHg 80%
    03:00 +19°C° 0 mm 2 mps 700 mmHg 82%
    04:00 +18°C° 0 mm 2 mps 700 mmHg 85%
    05:00 +18°C° 0 mm 2 mps 700 mmHg 87%
    06:00 +20°C° 0 mm 2 mps 701 mmHg 76%
    07:00 +24°C° 0 mm 3 mps 701 mmHg 65%
    08:00 +26°C° 0 mm 3 mps 702 mmHg 54%
    09:00 +29°C° 0 mm 3 mps 702 mmHg 45%
    10:00 +31°C° 0 mm 3 mps 702 mmHg 36%
    11:00 +34°C° 0 mm 3 mps 702 mmHg 27%
    12:00 +36°C° 0 mm 3 mps 702 mmHg 23%
    13:00 +37°C° 0 mm 3 mps 702 mmHg 19%
    14:00 +38°C° 0 mm 4 mps 702 mmHg 16%
    15:00 +37°C° 0 mm 4 mps 701 mmHg 20%
    16:00 +37°C° 0 mm 5 mps 701 mmHg 24%
    17:00 +36°C° 0 mm 6 mps 701 mmHg 27%
    18:00 +33°C° 0 mm 5 mps 701 mmHg 39%
    19:00 +29°C° 0 mm 4 mps 701 mmHg 51%
    20:00 +26°C° 0 mm 3 mps 701 mmHg 63%
    21:00 +25°C° 0 mm 3 mps 701 mmHg 64%
    22:00 +24°C° 0 mm 2 mps 701 mmHg 66%
    23:00 +23°C° 0 mm 2 mps 700 mmHg 67%
    Show more